Location: Bannatyne
(13.0833°N, 59.5333°W)
Time: 09:25:14
(UTC+00:00)

Vanguard 2 Rocket - Pass Details

Date: 28 January 2020
Orbit: 554 x 3326 km, 32.9° (Epoch: 28 March)

Event Time Altitude Azimuth Distance (km) Brightness Sun altitude
Rises 06:32:43 0° 264° (W) 3,199 - -55.5°
Reaches altitude 10° 06:35:50 10° 279° (W) 2,031 - -54.8°
Maximum altitude 06:39:16 22° 332° (NNW) 1,261 - -54.0°
Drops below altitude 10° 06:42:24 10° 25° (NNE) 1,818 - -53.2°
Sets 06:45:00 0° 42° (NE) 2,766 - -52.6°
